Salina, KS

3:14 AM CDT on April 29, 2017 (GMT -0500)
Salina Municipal

Weather History for KSLN - February, 2014

Change the Weather History Date:

Friday, February 28, 2014

  Actual Average Record
Temperature  
Mean Temperature 41 °F 40 °F  
Max Temperature 55 °F 51 °F 84 °F (2006)
Min Temperature 27 °F 29 °F -2 °F (1960)
Degree Days  
Heating Degree Days 24 25  
Month to date heating degree days 1017 824  
Since 1 July heating degree days 4250 3841  
Cooling Degree Days 0 0  
Month to date cooling degree days 0 0  
Year to date cooling degree days 0 0  
Moisture  
Dew Point 22 °F    
Average Humidity 54    
Maximum Humidity 69    
Minimum Humidity 38    
Precipitation  
Precipitation 0.00 in 0.05 in 0.87 in (1987)
Month to date precipitation 1.47 1.17  
Year to date precipitation 1.96 1.80  
Sea Level Pressure  
Sea Level Pressure 29.83 in    
Wind  
Wind Speed 12 mph (East)    
Max Wind Speed 22 mph    
Max Gust Speed 26 mph    
Visibility 10 miles    
Events      
T = Trace of Precipitation, MM = Missing Value Source: NWS Daily Summary

Daily Weather History Graph

Daily Weather History Graph

Search for Another Location

Airport or City:

Trip Planner

Search our weather history database for the weather conditions in past years. The results will help you decide how hot, cold, wet, or windy it might be!

Date:

Astronomy

Feb. 28, 2014 Rise Set
Actual Time 7:04 AM CST 6:22 PM CST
Civil Twilight 6:37 AM CST 6:49 PM CST
Nautical Twilight 6:06 AM CST 7:20 PM CST
Astronomical Twilight 5:35 AM CST 7:50 PM CST
Moon 6:19 AM CST (2/28) 6:00 PM CST (2/28)
Length of Visible Light 12h 11m
Length of Day
11h 18m
Waning Crescent, 1% of the Moon is Illuminated
Feb 28
Waning Crescent
Mar 1
New
Mar 8
First Quarter
Mar 16
Full
Mar 23
Last Quarter

Hourly Weather History & Observations

Time (CST) Temp. Windchill Dew Point Humidity Pressure Visibility Wind Dir Wind Speed Gust Speed Precip Events Conditions
12:53 AM 30.0 °F 20.0 °F 12.0 °F 47% 29.81 in 10.0 mi SE 12.7 mph - N/A   Clear
1:53 AM 30.9 °F 20.2 °F 12.0 °F 46% 29.76 in 10.0 mi ESE 15.0 mph - N/A   Clear
2:53 AM 30.9 °F 21.2 °F 12.9 °F 47% 29.74 in 10.0 mi ESE 12.7 mph - N/A   Clear
3:53 AM 32.0 °F 22.5 °F 12.9 °F 45% 29.71 in 10.0 mi ESE 12.7 mph - N/A   Clear
4:53 AM 30.9 °F 22.8 °F 14.0 °F 50% 29.68 in 10.0 mi East 9.2 mph - N/A   Clear
5:53 AM 30.0 °F 21.1 °F 14.0 °F 51% 29.70 in 10.0 mi East 10.4 mph - N/A   Scattered Clouds
6:53 AM 30.0 °F 23.2 °F 16.0 °F 56% 29.72 in 10.0 mi ESE 6.9 mph - N/A   Mostly Cloudy
7:53 AM 33.1 °F 24.9 °F 19.0 °F 56% 29.73 in 10.0 mi SE 10.4 mph - N/A   Mostly Cloudy
8:53 AM 36.0 °F 29.0 °F 19.9 °F 52% 29.76 in 10.0 mi SE 9.2 mph - N/A   Clear
9:53 AM 42.1 °F 34.9 °F 23.0 °F 47% 29.75 in 10.0 mi SSE 13.8 mph - N/A   Clear
10:53 AM 46.0 °F 39.6 °F 27.0 °F 47% 29.76 in 10.0 mi South 15.0 mph - N/A   Clear
11:53 AM 48.9 °F - 30.0 °F 48% 29.78 in 10.0 mi South 12.7 mph - N/A   Clear
12:53 PM 50.0 °F - 30.9 °F 48% 29.77 in 10.0 mi South 11.5 mph - N/A   Partly Cloudy
1:53 PM 52.0 °F - 33.1 °F 49% 29.78 in 9.0 mi Variable 4.6 mph - N/A   Overcast
2:53 PM 52.0 °F - 32.0 °F 47% 29.79 in 9.0 mi NNE 4.6 mph - N/A   Overcast
3:53 PM 55.0 °F - 30.9 °F 40% 29.79 in 10.0 mi North 9.2 mph - N/A   Overcast
4:53 PM 51.1 °F - 30.0 °F 44% 29.82 in 10.0 mi North 9.2 mph - N/A   Overcast
5:53 PM 50.0 °F - 30.0 °F 46% 29.85 in 10.0 mi ENE 4.6 mph - N/A   Overcast
6:53 PM 42.1 °F 33.3 °F 24.1 °F 49% 29.91 in 10.0 mi North 19.6 mph - 0.00 in   Clear
7:53 PM 39.9 °F 32.1 °F 19.9 °F 45% 29.95 in 10.0 mi North 13.8 mph - N/A   Clear
8:53 PM 35.1 °F 25.2 °F 21.0 °F 57% 30.02 in 10.0 mi North 16.1 mph - N/A   Clear
9:53 PM 30.0 °F 17.9 °F 21.0 °F 69% 30.07 in 10.0 mi North 18.4 mph - N/A   Clear
10:53 PM 28.0 °F 15.7 °F 19.9 °F 72% 30.09 in 10.0 mi North 17.3 mph - 0.00 in   Mostly Cloudy
11:53 PM 27.0 °F 14.3 °F 18.0 °F 69% 30.11 in 10.0 mi NNE 17.3 mph 23.0 mph N/A   Mostly Cloudy